Location: Izdebno
(52.6670°N, 16.2170°E)
Time: 07:58:44
(UTC+02:00)

SR - Pass Details

Date: 04 March 2024
Orbit: 568 x 858 km, 66.7° (Epoch: 27 April)

Event Time Altitude Azimuth Distance (km) Brightness Sun altitude
Rises 21:17:10 0° 319° (NW) 3,234 ? -31.9°
Reaches altitude 10° 21:19:40 10° 319° (NW) 2,255 ? -32.2°
Enters shadow 21:22:50 37° 316° (NW) 1,091 ? -32.6°
